Regional Weather Roundup
Issued by NWS

Home | Current Version | Previous Version | Graphics & Text | Print | Product List | Glossary On
Versions: 1 2 3 4 5 6 7 8 9 10 11 12 13 14 15 16 17 18 19 20 21 22 23 24 25 26 27 28 29 30 31 32 33 34 35 36 37 38 39 40 41 42 43 44 45 46 47 48 49 50
000
ASUS43 KLMK 290710
RWRKY
KENTUCKY REGIONAL WEATHER ROUNDUP
NATIONAL WEATHER SERVICE LOUISVILLE KY
300 AM EDT FRI AUG 29 2014

NOTE "FAIR" INDICATES FEW OR NO CLOUDS BELOW 12,000 FEET
WITH NO SIGNIFICANT WEATHER AND/OR OBSTRUCTIONS TO VISIBILITY.

KYZ001>023-026-027-061>063-070>075-290800-
WESTERN AND SOUTH CENTRAL KENTUCKY

CITY           SKY/WX    TMP DP  RH WIND       PRES   REMARKS
PADUCAH        FOG       73  70  90 CALM      29.97F VSB 1
HENDERSON      CLEAR     72  68  88 CALM      29.99F
OWENSBORO      PTCLDY    74  -3   5 CALM      30.00F
HOPKINSVILLE   PTCLDY    73  73 100 E3        29.99F
BOWLING GREEN  PTCLDY    73  71  93 CALM      30.01F
GLASGOW        PTCLDY    72  72 100 CALM      30.02F FOG
$$

KYZ024-025-028>034-038-045-046-053-290800-
NORTH CENTRAL KENTUCKY

CITY           SKY/WX    TMP DP  RH WIND       PRES   REMARKS
LOUISVILLE/SDF PTCLDY    77  68  73 E5        30.02F
LOUISVILLE/LOU PTCLDY    76  68  76 E6        30.03F
FORT KNOX      MOCLDY    73  70  88 E7        30.02S
$$

KYZ035>037-039>044-047>052-055>060-089>105-290800-
NORTHEAST KENTUCKY

CITY           SKY/WX    TMP DP  RH WIND       PRES   REMARKS
LEXINGTON      PTCLDY    74  65  73 E7        30.07F
COVINGTON      MOCLDY    70  61  73 E7        30.07F
FRANKFORT      PTCLDY    71  66  84 E7        30.04F
$$

KYZ054-064>069-076>088-106>120-290800-
SOUTHEAST KENTUCKY

CITY           SKY/WX    TMP DP  RH WIND       PRES   REMARKS
JACKSON        CLEAR     69  62  78 VRB3      30.09F
LONDON         MOCLDY    72  67  84 CALM      30.08S
SOMERSET       CLEAR     72  66  83 CALM      30.06S
MIDDLESBORO    CLEAR     69  68  97 CALM      30.08F
MONTICELLO     SUNNY     70  69  96 CALM      30.06F FOG
$$



USA.gov is the U.S. government's official web portal to all federal, state and local government web resources and services.